KLM57T EHAM-EDDS

Flight info

Callsign KLM57T
Flight time 0h 55m
Altitude 31000
Route EDUPO Z739 MISGO DCT DOJOH DCT DODEN DCT TABUM DCT FOLWU DCT UBENO/N0436F320 DCT KRH T128 BADSO BADSO2A
Aircraft E75L/M-SDE3GILORVW/S

Departure

Time 2026-04-17 12:34
Airport Amsterdam Airport Schiphol (EHAM)

Arrival

Time 2026-04-17 13:29
Airport Stuttgart Airport (EDDS)
Time Latitude Longitude Altitude Speed Heading
2026-04-17 10:59 52.30309 4.76239 -3 ft 0 kts 58°
2026-04-17 12:25 52.30302 4.76221 -3 ft 4 kts 59°
2026-04-17 12:25 52.30292 4.76186 -3 ft 4 kts 85°
2026-04-17 12:26 52.30297 4.76164 -3 ft 0 kts 141°
2026-04-17 12:30 52.30287 4.76175 -3 ft 3 kts 149°
2026-04-17 12:30 52.30255 4.76207 -3 ft 8 kts 148°
2026-04-17 12:30 52.30201 4.76259 -3 ft 10 kts 159°
2026-04-17 12:31 52.30138 4.76306 -3 ft 11 kts 119°
2026-04-17 12:31 52.30160 4.76423 -3 ft 12 kts 57°
2026-04-17 12:31 52.30207 4.76550 -3 ft 14 kts 58°
2026-04-17 12:31 52.30264 4.76697 -3 ft 16 kts 58°
2026-04-17 12:32 52.30328 4.76864 -3 ft 18 kts 58°
2026-04-17 12:32 52.30391 4.77029 -4 ft 17 kts 58°
2026-04-17 12:32 52.30456 4.77199 -3 ft 19 kts 58°
2026-04-17 12:32 52.30529 4.77386 -3 ft 20 kts 58°
2026-04-17 12:33 52.30568 4.77504 -3 ft 10 kts 89°
2026-04-17 12:33 52.30524 4.77584 -3 ft 10 kts 149°
2026-04-17 12:33 52.30455 4.77640 -3 ft 12 kts 154°
2026-04-17 12:33 52.30399 4.77599 -4 ft 12 kts 239°
2026-04-17 12:34 52.30287 4.77309 -6 ft 65 kts 238°
2026-04-17 12:34 52.29902 4.76308 -6 ft 141 kts 238°
2026-04-17 12:34 52.29321 4.74769 479 ft 173 kts 235°
2026-04-17 12:34 52.28656 4.73086 1573 ft 175 kts 236°
2026-04-17 12:35 52.28012 4.71391 2805 ft 181 kts 235°
2026-04-17 12:35 52.27229 4.69695 3714 ft 193 kts 219°
2026-04-17 12:35 52.26007 4.68812 4759 ft 197 kts 189°
2026-04-17 12:35 52.24650 4.68961 5789 ft 203 kts 165°
2026-04-17 12:37 52.18466 4.86363 11550 ft 340 kts 114°
2026-04-17 12:37 52.17599 4.90080 12388 ft 357 kts 113°
2026-04-17 12:38 52.16727 4.93944 13323 ft 369 kts 113°
2026-04-17 12:38 52.15841 4.97832 14652 ft 369 kts 113°
2026-04-17 12:38 52.14936 5.01788 15617 ft 376 kts 113°
2026-04-17 12:38 52.14007 5.05804 16624 ft 382 kts 113°
2026-04-17 12:39 52.13078 5.09887 17577 ft 388 kts 113°
2026-04-17 12:39 52.12135 5.14043 18493 ft 395 kts 113°
2026-04-17 12:39 52.11183 5.18267 19264 ft 401 kts 113°
2026-04-17 12:39 52.10229 5.22553 20025 ft 406 kts 112°
2026-04-17 12:40 52.09270 5.26916 20768 ft 412 kts 112°
2026-04-17 12:40 52.08313 5.31341 21496 ft 418 kts 112°
2026-04-17 12:40 52.07350 5.35835 22212 ft 423 kts 112°
2026-04-17 12:40 52.06378 5.40381 22899 ft 428 kts 111°
2026-04-17 12:41 52.05410 5.44977 23615 ft 432 kts 111°
2026-04-17 12:41 52.04436 5.49621 24196 ft 437 kts 111°
2026-04-17 12:41 52.03461 5.54319 24758 ft 441 kts 110°
2026-04-17 12:41 52.02478 5.59063 25285 ft 445 kts 110°
2026-04-17 12:42 52.01497 5.63850 25768 ft 449 kts 110°
2026-04-17 12:42 52.00524 5.68654 26411 ft 448 kts 110°
2026-04-17 12:42 51.99557 5.73450 27052 ft 447 kts 110°
2026-04-17 12:42 51.98919 5.76624 27456 ft 446 kts 110°
2026-04-17 12:43 51.97954 5.81398 28027 ft 446 kts 111°
2026-04-17 12:43 51.96598 5.85889 28543 ft 442 kts 128°
2026-04-17 12:43 51.94661 5.89715 29090 ft 438 kts 135°
2026-04-17 12:43 51.92615 5.93375 29622 ft 439 kts 135°
2026-04-17 12:44 51.90571 5.97049 30168 ft 439 kts 135°
2026-04-17 12:44 51.88528 6.00720 30621 ft 439 kts 135°
2026-04-17 12:44 51.86483 6.04381 31098 ft 438 kts 135°
2026-04-17 12:44 51.84438 6.08050 31320 ft 444 kts 134°
2026-04-17 12:45 51.82370 6.11832 31309 ft 453 kts 134°
2026-04-17 12:45 51.78161 6.19530 31336 ft 460 kts 134°
2026-04-17 12:46 51.73911 6.27288 31268 ft 461 kts 134°
2026-04-17 12:46 51.69659 6.35036 31222 ft 461 kts 134°
2026-04-17 12:47 51.65405 6.42761 31237 ft 461 kts 134°
2026-04-17 12:47 51.61145 6.50475 31223 ft 460 kts 133°
2026-04-17 12:48 51.56916 6.58113 31226 ft 460 kts 133°
2026-04-17 12:48 51.52653 6.65787 31201 ft 460 kts 134°
2026-04-17 12:49 51.48386 6.73446 31202 ft 460 kts 134°
2026-04-17 12:49 51.44099 6.81115 31201 ft 462 kts 133°
2026-04-17 12:50 51.39802 6.88770 31204 ft 461 kts 134°
2026-04-17 12:50 51.35207 6.95922 31203 ft 460 kts 138°
2026-04-17 12:51 51.30595 7.03019 31206 ft 460 kts 137°
2026-04-17 12:51 51.25996 7.10131 31211 ft 460 kts 137°
2026-04-17 12:52 51.21397 7.17239 31203 ft 461 kts 137°
2026-04-17 12:52 51.16780 7.24363 31215 ft 462 kts 137°
2026-04-17 12:53 51.12156 7.31475 31215 ft 462 kts 137°
2026-04-17 12:53 51.07536 7.38562 31218 ft 460 kts 137°
2026-04-17 12:54 51.02922 7.45620 31216 ft 461 kts 137°
2026-04-17 12:54 50.98296 7.52675 31215 ft 461 kts 137°
2026-04-17 12:55 50.93673 7.59704 31213 ft 461 kts 137°
2026-04-17 12:55 50.89070 7.66684 31222 ft 461 kts 137°
2026-04-17 12:56 50.84404 7.73738 31226 ft 461 kts 137°
2026-04-17 12:56 50.79765 7.80638 31226 ft 461 kts 138°
2026-04-17 12:57 50.75073 7.87542 31237 ft 461 kts 138°
2026-04-17 12:57 50.70384 7.94435 31241 ft 461 kts 138°
2026-04-17 12:58 50.65689 8.01322 31239 ft 461 kts 138°
2026-04-17 12:58 50.60982 8.08185 31206 ft 460 kts 140°
2026-04-17 12:59 50.55737 8.13917 31212 ft 459 kts 149°
2026-04-17 12:59 50.50358 8.19303 31203 ft 458 kts 149°
2026-04-17 13:00 50.44984 8.24705 31203 ft 459 kts 149°
2026-04-17 13:00 50.39606 8.30111 31206 ft 459 kts 149°
2026-04-17 13:01 50.34224 8.35509 31187 ft 459 kts 148°
2026-04-17 13:01 50.28857 8.40879 31204 ft 458 kts 148°
2026-04-17 13:02 50.23452 8.46164 31196 ft 458 kts 149°
2026-04-17 13:02 50.18041 8.51415 31187 ft 458 kts 149°
2026-04-17 13:03 50.12634 8.56661 31187 ft 458 kts 149°
2026-04-17 13:03 50.07210 8.61872 31182 ft 456 kts 153°
2026-04-17 13:03 50.04291 8.63752 31182 ft 453 kts 168°
2026-04-17 13:04 50.01193 8.64550 31229 ft 451 kts 176°
2026-04-17 13:04 49.94948 8.65530 31168 ft 450 kts 176°
2026-04-17 13:05 49.88715 8.66551 31183 ft 451 kts 176°
2026-04-17 13:05 49.82493 8.67610 31183 ft 449 kts 176°
2026-04-17 13:06 49.76274 8.68671 31188 ft 450 kts 176°
2026-04-17 13:06 49.70102 8.68637 31221 ft 447 kts 188°
2026-04-17 13:07 49.63921 8.67709 31198 ft 445 kts 188°
2026-04-17 13:07 49.57756 8.66815 31210 ft 445 kts 187°
2026-04-17 13:08 49.51586 8.65938 31212 ft 445 kts 187°
2026-04-17 13:08 49.45417 8.65071 31210 ft 445 kts 187°
2026-04-17 13:09 49.39247 8.64205 31203 ft 445 kts 187°
2026-04-17 13:09 49.33079 8.63343 31204 ft 445 kts 187°
2026-04-17 13:10 49.26907 8.62483 31199 ft 445 kts 187°
2026-04-17 13:10 49.20820 8.61638 31136 ft 428 kts 187°
2026-04-17 13:11 49.14971 8.60826 31207 ft 422 kts 187°
2026-04-17 13:11 49.09115 8.60016 31211 ft 422 kts 187°
2026-04-17 13:12 49.03261 8.59206 31177 ft 422 kts 187°
2026-04-17 13:12 48.97252 8.58880 29000 ft 443 kts 179°
2026-04-17 13:12 48.94147 8.59177 27645 ft 450 kts 178°
2026-04-17 13:13 48.90999 8.59505 26278 ft 457 kts 178°
2026-04-17 13:13 48.87822 8.59987 24888 ft 463 kts 170°
2026-04-17 13:13 48.84805 8.61740 23532 ft 471 kts 148°
2026-04-17 13:13 48.82410 8.65028 22755 ft 460 kts 126°
2026-04-17 13:14 48.81068 8.69241 22747 ft 430 kts 104°
2026-04-17 13:14 48.80807 8.73631 22388 ft 416 kts 84°
2026-04-17 13:14 48.81345 8.77899 21825 ft 408 kts 76°
2026-04-17 13:14 48.81885 8.82110 21222 ft 405 kts 80°
2026-04-17 13:15 48.82175 8.86343 20639 ft 402 kts 85°
2026-04-17 13:15 48.82314 8.90570 20043 ft 400 kts 87°
2026-04-17 13:15 48.82388 8.94763 19495 ft 396 kts 89°
2026-04-17 13:15 48.82034 8.98844 18996 ft 387 kts 109°
2026-04-17 13:16 48.80845 9.02450 18508 ft 378 kts 122°
2026-04-17 13:16 48.79328 9.05668 17937 ft 371 kts 135°
2026-04-17 13:16 48.77345 9.07971 17846 ft 349 kts 154°
2026-04-17 13:16 48.75105 9.09062 17511 ft 335 kts 176°
2026-04-17 13:17 48.72842 9.08607 17055 ft 326 kts 203°
2026-04-17 13:17 48.70942 9.06849 16610 ft 318 kts 225°
2026-04-17 13:17 48.69715 9.04142 16178 ft 310 kts 249°
2026-04-17 13:17 48.69267 9.01040 15769 ft 305 kts 267°
2026-04-17 13:18 48.69165 8.97848 15336 ft 303 kts 268°
2026-04-17 13:18 48.69067 8.94681 14936 ft 300 kts 268°
2026-04-17 13:18 48.68963 8.91500 14524 ft 298 kts 268°
2026-04-17 13:18 48.68850 8.88422 14132 ft 296 kts 267°
2026-04-17 13:19 48.68715 8.85329 13718 ft 293 kts 266°
2026-04-17 13:19 48.68559 8.82272 13348 ft 289 kts 266°
2026-04-17 13:19 48.68381 8.79255 12958 ft 287 kts 265°
2026-04-17 13:19 48.68176 8.76269 12580 ft 284 kts 264°
2026-04-17 13:20 48.67947 8.73311 12198 ft 282 kts 264°
2026-04-17 13:20 48.67699 8.70380 11814 ft 280 kts 263°
2026-04-17 13:20 48.67432 8.67477 11455 ft 278 kts 262°
2026-04-17 13:20 48.67149 8.64591 11077 ft 277 kts 262°
2026-04-17 13:21 48.66568 8.61851 10690 ft 276 kts 237°
2026-04-17 13:21 48.65133 8.59999 10372 ft 274 kts 203°
2026-04-17 13:21 48.63289 8.59631 10208 ft 265 kts 172°
2026-04-17 13:21 48.61547 8.60255 10196 ft 251 kts 171°
2026-04-17 13:22 48.59814 8.60562 9563 ft 255 kts 167°
2026-04-17 13:22 48.58272 8.61854 8894 ft 254 kts 130°
2026-04-17 13:22 48.57515 8.64131 8621 ft 239 kts 100°
2026-04-17 13:22 48.57629 8.66574 8313 ft 234 kts 69°
2026-04-17 13:23 48.58337 8.68768 8085 ft 235 kts 62°
2026-04-17 13:23 48.59114 8.70976 7786 ft 241 kts 63°
2026-04-17 13:23 48.59802 8.73296 7450 ft 243 kts 72°
2026-04-17 13:23 48.60234 8.75774 7100 ft 245 kts 77°
2026-04-17 13:24 48.60639 8.78276 6775 ft 246 kts 76°
2026-04-17 13:24 48.61074 8.80773 6439 ft 246 kts 75°
2026-04-17 13:24 48.61532 8.83263 6121 ft 246 kts 74°
2026-04-17 13:24 48.62007 8.85742 5734 ft 247 kts 74°
2026-04-17 13:25 48.62500 8.88291 5262 ft 254 kts 74°
2026-04-17 13:25 48.62998 8.90868 4892 ft 255 kts 74°
2026-04-17 13:25 48.63474 8.93348 4925 ft 238 kts 74°
2026-04-17 13:25 48.63939 8.95743 4425 ft 244 kts 74°
2026-04-17 13:26 48.64427 8.98260 3621 ft 250 kts 73°
2026-04-17 13:26 48.64909 9.00738 2861 ft 242 kts 74°
2026-04-17 13:26 48.65341 9.03009 2809 ft 208 kts 73°
2026-04-17 13:26 48.65749 9.04962 2957 ft 183 kts 71°
2026-04-17 13:27 48.66104 9.06858 3023 ft 194 kts 75°
2026-04-17 13:27 48.66450 9.08794 2941 ft 186 kts 76°
2026-04-17 13:27 48.66769 9.10669 2618 ft 177 kts 74°
2026-04-17 13:27 48.67122 9.12353 2396 ft 160 kts 72°
2026-04-17 13:28 48.67414 9.13888 2173 ft 145 kts 74°
2026-04-17 13:28 48.67690 9.15290 1993 ft 135 kts 73°
2026-04-17 13:28 48.67933 9.16680 1832 ft 139 kts 75°
2026-04-17 13:28 48.68209 9.18072 1672 ft 137 kts 70°
2026-04-17 13:29 48.68470 9.19478 1442 ft 142 kts 73°
2026-04-17 13:29 48.68746 9.20908 1279 ft 138 kts 73°
2026-04-17 13:29 48.68979 9.22149 1250 ft 103 kts 72°
2026-04-17 13:29 48.69071 9.22634 1234 ft 44 kts 74°
2026-04-17 13:30 48.69178 9.22961 1225 ft 21 kts 51°
2026-04-17 13:30 48.69265 9.23098 1220 ft 15 kts 44°
2026-04-17 13:30 48.69339 9.23137 1219 ft 7 kts 290°
2026-04-17 13:30 48.69327 9.23062 1221 ft 8 kts 253°
2026-04-17 13:31 48.69310 9.22972 1223 ft 10 kts 254°
2026-04-17 13:31 48.69289 9.22860 1226 ft 12 kts 254°
2026-04-17 13:31 48.69264 9.22727 1230 ft 14 kts 254°
2026-04-17 13:31 48.69235 9.22574 1234 ft 16 kts 254°
2026-04-17 13:32 48.69202 9.22405 1238 ft 18 kts 253°
2026-04-17 13:32 48.69166 9.22218 1248 ft 19 kts 255°
2026-04-17 13:32 48.69129 9.22015 1251 ft 21 kts 254°
2026-04-17 13:32 48.69093 9.21826 1256 ft 17 kts 253°
2026-04-17 13:33 48.69060 9.21647 1265 ft 19 kts 252°
2026-04-17 13:33 48.69022 9.21452 1262 ft 20 kts 253°
2026-04-17 13:33 48.68981 9.21238 1267 ft 22 kts 253°
2026-04-17 13:33 48.68937 9.21007 1272 ft 24 kts 254°
2026-04-17 13:34 48.68892 9.20767 1277 ft 24 kts 254°
2026-04-17 13:34 48.68845 9.20515 1285 ft 25 kts 254°
2026-04-17 13:34 48.68795 9.20256 1283 ft 26 kts 255°
2026-04-17 13:34 48.68757 9.20033 1283 ft 18 kts 276°
2026-04-17 13:35 48.68834 9.19889 1283 ft 17 kts 314°
2026-04-17 13:35 48.68880 9.19783 1283 ft 13 kts 270°
2026-04-17 13:35 48.68855 9.19637 1284 ft 11 kts 254°
2026-04-17 13:35 48.68833 9.19519 1283 ft 13 kts 254°
2026-04-17 13:36 48.68826 9.19467 1283 ft 2 kts 295°
2026-04-17 13:36 48.68848 9.19450 1283 ft 6 kts 344°
2026-04-17 13:36 48.68873 9.19439 1283 ft 4 kts 344°
2026-04-17 13:36 48.68890 9.19431 1283 ft 1 kts 344°
2026-04-17 13:37 48.68895 9.19429 1283 ft 0 kts 344°